Hourly Data Report for October 12, 2016

All times are specified in Local Standard Time (LST). Add 1 hour to adjust for Daylight Saving Time where and when it is observed.

GRISE FIORD CLIMATE
NUNAVUT

76°25'22.040" N
82°54'08.020" W
44.50 m
2402351
71971
NGC

Download Data

Hourly Data (October 2016)
Hourly Data Report for October 12, 2016
Temp Definition
°C
Dew Point Temp Definition
°C
Rel Hum Definition
%
Wind Dir Definition
10's deg

Wind Spd Definition
km/h
Visibility Definition
km
Stn Press Definition
kPa
Hmdx Definition


Wind Chill Definition


Weather Definition


TIME
00:00 -4.4 -9.7 66 35 24   100.59   -11 LegendNANA
01:00 -3.4 -9.8 61 2 22   100.52   -10 LegendNANA
02:00 -2.7 -10.2 56 10 25   100.46   -9 LegendNANA
03:00 -3.3 -9.6 62 9 31   100.56   -11 LegendNANA
04:00 -3.5 -8.8 66 7 22   100.64   -10 LegendNANA
05:00 -3.3 -10.6 57 8 10   100.70   -7 LegendNANA
06:00 -4.8 -11.9 58 8 12   100.71   -10 LegendNANA
07:00 -5.4 -12.3 58 8 13   100.71   -11 LegendNANA
08:00 -5.8 -12.5 59 6 20   100.66   -13 LegendNANA
09:00 -6.7 -13.2 60 4 15   100.66   -13 LegendNANA
10:00 -6.7 -12.4 64 7 15   100.67   -13 LegendNANA
11:00 -6.5 -12.8 61 6 12   100.66   -12 LegendNANA
12:00 -5.7 -13.5 54 9 9   100.63   -10 LegendNANA
13:00 -6.6 -12.6 62 6 23   100.61   -14 LegendNANA
14:00 -6.1 -12.8 59 9 9   100.63   -10 LegendNANA
15:00 -6.9 -12.6 64 5 20   100.64   -14 LegendNANA
16:00
17:00 -6.5 -12.6 62 5 24   100.64   -14 LegendNANA
18:00 -6.1 -12.4 61 5 10   100.66   -11 LegendNANA
19:00 -6.0 -11.9 63 6 12   100.68   -11 LegendNANA
20:00 -7.1 -12.1 68 4 9   100.68   -11 LegendNANA
21:00 -5.6 -11.1 65 7 7   100.69   -9 LegendNANA
22:00 -7.1 -11.5 71 7 4   100.71   -9 LegendNANA
23:00 -6.2 -11.1 68 5 22   100.72   -13 LegendNANA

Notes on Data Quality.

Legend

  • E = Estimated
  • M = Missing
  • NA = Not Available
  • ‡ = Partner data that is not subject to review by the National Climate Archives
Date modified: